Tracking 21076 objects as of 10-Aug-2020
HD Live streaming from Space Station
objects crossing your sky now
Track the most recent launched group of Starlink satellites

ARIANE 1 DEB

Track ARIANE 1 DEB now!


NORAD ID: 27732
Int'l Code: 1979-104S
Perigee: 989.8 km
Apogee: 40,728.7 km
Inclination: 15.9 °
Period: 745.3 minutes
Semi major axis: 27230 km
RCS: 0.2067 m2 (medium)
Launch date: December 24, 1979
Source: European Space Agency (ESA)
Launch site: FRENCH GUIANA (FRGUI)

Note: This is SATELLITE DEBRIS
aabbcc
Your satellite tracking list
Your tracking list is empty




NASA's NSSDC Master Catalog

Two Line Element Set (TLE):
1 27732U 79104S   20223.01228924 -.00000254  00000-0 -21175-1 0  9999
2 27732  15.8669 249.2116 7296822 140.6943 305.8007  1.93207972137651
Source of the keplerian elements: AFSPC